This is the latest recevied weather packets stored in our database for station/object K5NCO. If no packets are shown the sender has not sent any weather packets the latest 10 day(s).
| Time | Temp. | Humidity | Pressure | Rain* | Wind** | Luminosity | Snow |
|---|---|---|---|---|---|---|---|
| 1777656785 | 13.33° C | 99% | 1015 hPa | 0 mm | - | 40 W/m² | - |
| 1777656480 | 13.33° C | 99% | 1015 hPa | 0 mm | - | 36 W/m² | - |
| 1777656176 | 13.33° C | 99% | 1015.1 hPa | 0 mm | - | 42 W/m² | - |
| 1777655866 | 13.33° C | 99% | 1014.9 hPa | 0 mm | - | 46 W/m² | - |
| 1777655563 | 13.89° C | 99% | 1014.6 hPa | 0 mm | - | 51 W/m² | - |
| 1777655260 | 13.89° C | 99% | 1014.1 hPa | 0 mm | - | 97 W/m² | - |
| 1777654957 | 13.89° C | 99% | 1014.2 hPa | 0 mm | - | 78 W/m² | - |
| 1777654654 | 13.89° C | 99% | 1014.1 hPa | 0 mm | - | 85 W/m² | - |
| 1777654352 | 13.89° C | 99% | 1014.4 hPa | 0 mm | - | 142 W/m² | - |
| 1777654049 | 13.33° C | 99% | 1014.4 hPa | 0 mm | - | 128 W/m² | - |
| 1777653746 | 13.33° C | 99% | 1014.4 hPa | 0 mm | - | 194 W/m² | - |
| 1777653442 | 13.33° C | 99% | 1014.5 hPa | 0 mm | - | 140 W/m² | - |
| 1777653140 | 13.89° C | 99% | 1014.7 hPa | 0 mm | - | 80 W/m² | - |
| 1777652835 | 13.33° C | 99% | 1014.5 hPa | 0 mm | - | 114 W/m² | - |
| 1777652532 | 13.89° C | 99% | 1014.5 hPa | 0 mm | - | 109 W/m² | - |
| 1777652230 | 13.33° C | 99% | 1014.7 hPa | 0 mm | - | 72 W/m² | - |
| 1777651927 | 13.89° C | 99% | 1014.7 hPa | 0 mm | - | 105 W/m² | - |
| 1777651623 | 13.89° C | 99% | 1014.5 hPa | 0 mm | - | 156 W/m² | - |
| 1777651320 | 13.33° C | 99% | 1013.8 hPa | 1.78 mm | - | 200 W/m² | - |
| 1777651017 | 13.89° C | 99% | 1013.2 hPa | 1.78 mm | - | 89 W/m² | - |
| 1777650714 | 13.89° C | 99% | 1013.6 hPa | 3.05 mm | - | 115 W/m² | - |
| 1777650411 | 13.89° C | 99% | 1013.8 hPa | 1.27 mm | - | 112 W/m² | - |
| 1777650108 | 13.89° C | 99% | 1014.8 hPa | 1.78 mm | - | 72 W/m² | - |
| 1777649805 | 13.89° C | 99% | 1016.1 hPa | 1.78 mm | - | 30 W/m² | - |
| 1777649503 | 13.33° C | 99% | 1016 hPa | 0 mm | - | 40 W/m² | - |
* Rain latest hour (hover to see other rain measurements)
** Current wind speed in m/s (hover to see current wind gust speed)